Regional Weather Roundup
Issued by NWS Sioux Falls, SD

Home | Current Version | Previous Version | Text Only | Print | Product List | Glossary Off
Versions: 1 2 3 4 5 6 7 8 9 10 11 12 13 14 15 16 17 18 19 20 21 22 23 24 25 26 27 28 29 30 31 32 33 34 35 36 37 38 39 40 41 42 43 44 45 46 47 48 49 50

521
ASUS43 KFSD 021410
RWRFSD

WEATHER ROUNDUP FOR SE SOUTH DAKOTA/SW MINNESOTA/NW IOWA
NATIONAL WEATHER SERVICE SIOUX FALLS SD
800 AM CST FRI DEC 02 2016

NOTE: "FAIR" INDICATES FEW OR NO CLOUDS BELOW 12,000 FEET WITH NO
SIGNIFICANT WEATHER AND OR OBSTRUCTIONS TO VISIBILITY.


SDZ038>040-050-052>070-021500-
SOUTHEAST SOUTH DAKOTA

CITY           SKY/WX    TMP DP  RH WIND       PRES   REMARKS
BROOKINGS      CLOUDY    26  24  92 CALM      30.18S
CHAMBERLAIN    CLOUDY    31  30  97 W6        30.21R WCI  25
HURON          CLOUDY    29  27  92 N8        30.22R WCI  21
MADISON        CLOUDY    27  27 100 NW3       30.18S
MITCHELL       CLOUDY    30  28  92 N5        30.23R WCI  25
SIOUX FALLS    CLOUDY    31  28  89 N6        30.20R WCI  25
WINNER         CLOUDY    28  24  85 W3        30.20R
YANKTON        CLOUDY    32  28  86 NW5       30.21R WCI  27
$$

MNZ071-072-080-081-089-090-097-098-021500-
SOUTHWEST MINNESOTA

CITY           SKY/WX    TMP DP  RH WIND       PRES   REMARKS
FAIRMONT       CLOUDY    30  26  85 N10       30.20R WCI  21
JACKSON        CLOUDY    30  27  86 NW10      30.19R WCI  21
LUVERNE        CLOUDY    30  27  86 NE5       30.20R WCI  25
MARSHALL       CLOUDY    29  25  85 N7        30.21R WCI  22
MONTEVIDEO     CLOUDY    28  28 100 N6        30.23R WCI  22
PIPESTONE      CLOUDY    28  25  86 N3        30.18R
REDWOOD FALLS  CLOUDY    30  22  72 NW8       30.20R WCI  22
TRACY          CLOUDY    30  27  88 NW8       30.20S WCI  22
WINDOM         CLOUDY    30  27  86 CALM      30.19R
WORTHINGTON    CLOUDY    29  26  89 N8        30.19R WCI  21
$$

IAZ001>003-012>014-020>022-031-032-NEZ013-014-SDZ071-021500-
NORTHWEST IOWA

CITY           SKY/WX    TMP DP  RH WIND       PRES   REMARKS
CHEROKEE       CLOUDY    33  33  99 NW3       30.20R
DENISON        CLOUDY    32  32 100 NW6       30.19R WCI  26
ESTHERVILLE    CLOUDY    30  28  92 NW10      30.19R WCI  21
LE MARS        CLOUDY    34  32  93 NW6       30.22R WCI  29
ORANGE CITY    CLOUDY    32  32 100 CALM      30.20R
SHELDON        CLOUDY    32  32 100 N7        30.19R WCI  26
SIOUX CITY     CLOUDY    34  32  92 NW6       30.22R WCI  29
SPENCER        CLOUDY    32  29  88 NW8       30.20R WCI  25
STORM LAKE     CLOUDY    32  32 100 NW6       30.19R FOG     WCI  26
$$

ABBREVIATIONS USED IN REMARKS
   TC - TEMPERATURE IN CELSIUS
  WCI - WIND CHILL INDEX
   HX - HEAT INDEX
  VSB - VISIBILITY





USA.gov is the U.S. government's official web portal to all federal, state and local government web resources and services.